Location: Batang Balui
(2.7000°N, 113.7833°E)
Time: 00:15:15
(UTC+00:00)

Cosmos 1666 - Pass Details

Date: 03 December 2021
Orbit: 494 x 515 km, 82.5° (Epoch: 27 January)

Event Time Altitude Azimuth Distance (km) Brightness Sun altitude
Rises 10:46:53 0° 11° (N) 2,561 5.9 -8.5°
Reaches altitude 10° 10:49:07 10° 21° (NNE) 1,682 4.9 -9.0°
Maximum altitude 10:52:27 33° 86° (E) 849 3.3 -9.7°
Drops below altitude 10° 10:55:49 10° 151° (SSE) 1,694 5.2 -10.5°
Sets 10:58:04 0° 161° (SSE) 2,581 6.3 -11.0°
